Bennington, VT

6:26 AM EDT on June 25, 2017 (GMT -0400)
Morse State

Weather History for KDDH - March, 2014

Change the Weather History Date:

Wednesday, March 5, 2014

  Actual Average Record
Temperature  
Mean Temperature 13 °F 29 °F  
Max Temperature 24 °F 40 °F 51 °F (2011)
Min Temperature 2 °F 19 °F 1 °F (2017)
Degree Days  
Heating Degree Days 52 36  
Month to date heating degree days 255 181  
Since 1 July heating degree days 5503 5432  
Cooling Degree Days 0 0  
Month to date cooling degree days 0 0  
Year to date cooling degree days 0 0  
Moisture  
Dew Point 7 °F    
Average Humidity 65    
Maximum Humidity 80    
Minimum Humidity 49    
Precipitation  
Precipitation T in 0.09 in 0.75 in (2008)
Month to date precipitation 0.01 0.44  
Year to date precipitation 5.87 5.43  
Sea Level Pressure  
Sea Level Pressure 30.33 in    
Wind  
Wind Speed 3 mph (NW)    
Max Wind Speed 13 mph    
Max Gust Speed 17 mph    
Visibility 10 miles    
Events      
T = Trace of Precipitation, MM = Missing Value Source: NWS Daily Summary

Daily Weather History Graph

Daily Weather History Graph

Search for Another Location

Airport or City:

Trip Planner

Search our weather history database for the weather conditions in past years. The results will help you decide how hot, cold, wet, or windy it might be!

Date:

Astronomy

Mar. 05, 2014 Rise Set
Actual Time 6:22 AM EST 5:47 PM EST
Civil Twilight 5:53 AM EST 6:15 PM EST
Nautical Twilight 5:21 AM EST 6:48 PM EST
Astronomical Twilight 4:48 AM EST 7:21 PM EST
Moon 8:38 AM EST (3/5) 11:01 PM EST (3/5)
Length of Visible Light 12h 21m
Length of Day
11h 25m
Waxing Crescent, 23% of the Moon is Illuminated
Mar 5
Waxing Crescent
Mar 8
First Quarter
Mar 16
Full
Mar 23
Last Quarter
Mar 30
New

Hourly Weather History & Observations

Time (EST) Temp. Windchill Dew Point Humidity Pressure Visibility Wind Dir Wind Speed Gust Speed Precip Events Conditions
12:54 AM 16.0 °F - 10.0 °F 77% 30.26 in 10.0 mi Calm Calm - N/A   Overcast
1:54 AM 16.0 °F - 10.0 °F 77% 30.25 in 10.0 mi Calm Calm - N/A   Overcast
2:54 AM 16.0 °F - 10.0 °F 77% 30.25 in 8.0 mi Calm Calm - N/A   Overcast
3:54 AM 16.0 °F - 10.9 °F 81% 30.24 in 9.0 mi Calm Calm - N/A   Overcast
4:54 AM 16.0 °F - 10.9 °F 81% 30.24 in 9.0 mi Calm Calm - N/A   Overcast
5:54 AM 17.1 °F - 10.9 °F 77% 30.24 in 10.0 mi Calm Calm - N/A   Overcast
6:54 AM 17.1 °F - 10.9 °F 77% 30.25 in 10.0 mi Calm Calm - N/A   Overcast
7:54 AM 18.0 °F - 10.9 °F 74% 30.27 in 10.0 mi Calm Calm - N/A   Overcast
8:54 AM 19.0 °F - 10.9 °F 71% 30.28 in 10.0 mi Calm Calm - N/A   Overcast
9:54 AM 21.0 °F - 12.0 °F 68% 30.29 in 10.0 mi Calm Calm - N/A   Overcast
10:54 AM 21.0 °F 16.2 °F 10.0 °F 63% 30.29 in 10.0 mi Variable 3.5 mph - N/A   Overcast
11:54 AM 21.0 °F 13.4 °F 10.0 °F 63% 30.29 in 10.0 mi West 5.8 mph - N/A   Overcast
12:54 PM 21.9 °F 15.7 °F 10.9 °F 63% 30.28 in 10.0 mi NW 4.6 mph - N/A   Overcast
1:54 PM 21.9 °F 11.0 °F 10.0 °F 60% 30.29 in 10.0 mi WNW 10.4 mph - 0.00 in   Overcast
2:21 PM 23.0 °F 13.1 °F 10.0 °F 58% 30.25 in 10.0 mi NW 9.2 mph - N/A   Overcast
2:28 PM 23.0 °F 13.1 °F 10.0 °F 58% 30.26 in 10.0 mi NW 9.2 mph - N/A   Overcast
2:54 PM 24.1 °F 17.0 °F 10.0 °F 55% 30.30 in 10.0 mi Variable 5.8 mph - N/A   Overcast
3:54 PM 24.1 °F 15.2 °F 8.1 °F 51% 30.32 in 10.0 mi NNW 8.1 mph - N/A   Overcast
4:54 PM 23.0 °F 13.9 °F 6.1 °F 48% 30.33 in 10.0 mi NNW 8.1 mph - N/A   Clear
5:54 PM 19.9 °F 8.6 °F 5.0 °F 52% 30.38 in 10.0 mi NNW 10.4 mph 17.3 mph N/A   Clear
6:54 PM 18.0 °F 9.8 °F 1.9 °F 50% 30.42 in 10.0 mi North 5.8 mph - N/A   Overcast
7:54 PM 16.0 °F 7.4 °F -0.0 °F 49% 30.45 in 10.0 mi North 5.8 mph - N/A   Clear
8:54 PM 14.0 °F - -2.0 °F 49% 30.48 in 10.0 mi Calm Calm - N/A   Clear
9:54 PM 10.9 °F 4.7 °F -0.9 °F 59% 30.51 in 10.0 mi SSW 3.5 mph - N/A   Clear
10:54 PM 8.1 °F - -0.0 °F 70% 30.53 in 10.0 mi Calm Calm - N/A   Clear
11:54 PM 3.0 °F - -2.9 °F 76% 30.54 in 10.0 mi Calm Calm - N/A   Clear